Location: Unspecified
(41.1850°N, 73.2650°W)
Time: 17:36:26
(UTC+00:00)

CORIOLIS - Pass Details

Date: 14 December 2025
Orbit: 816 x 835 km, 98.7° (Epoch: 15 January)

Event Time Altitude Azimuth Distance (km) Brightness Sun altitude
Rises 22:19:13 0° 167° (SSE) 3,328 7.4 -10.0°
Reaches altitude 10° 22:21:33 10° 168° (SSE) 2,400 6.7 -10.4°
Maximum altitude 22:26:52 81° 256° (WSW) 831 4.3 -11.3°
Drops below altitude 10° 22:32:14 10° 345° (NNW) 2,420 6.5 -12.3°
Sets 22:34:36 0° 346° (NNW) 3,358 7.3 -12.7°
